Estación de C. Llollinco

Ultimos registro cada 15 minutos 55
Estación Fecha / Hora Temperatura Humedad Lluvia Velocidad Dirección Radiación Presion
55 C. Llollinco 02-05-2026 13:30 14,8 49,1 0 0,6 359 502 0
54 C. Llollinco 02-05-2026 13:15 14,6 46,1 0 0,4 13 508 0
53 C. Llollinco 02-05-2026 13:00 14,1 48 0 0,6 25 512 0
52 C. Llollinco 02-05-2026 12:45 13,4 56,8 0 0,5 338 520 0
51 C. Llollinco 02-05-2026 12:30 13 58 0 0,5 28 377 0
50 C. Llollinco 02-05-2026 12:15 12,7 51,6 0 0,8 10 479 0
49 C. Llollinco 02-05-2026 12:00 12,1 54,2 0 0,1 275 498 0
48 C. Llollinco 02-05-2026 11:45 11,7 54,8 0 0,3 359 483 0
47 C. Llollinco 02-05-2026 11:30 10,8 57,1 0 0,4 58 462 0
46 C. Llollinco 02-05-2026 11:15 9,8 65,8 0 0,3 209 438 0
45 C. Llollinco 02-05-2026 11:00 9,1 68,7 0 0 170 424 0
44 C. Llollinco 02-05-2026 10:45 8,2 72,7 0 0,1 112 403 0
43 C. Llollinco 02-05-2026 10:30 7,4 76,2 0 0,2 177 370 0
42 C. Llollinco 02-05-2026 10:15 6,6 89,8 0 0,3 8 347 0
41 C. Llollinco 02-05-2026 10:00 5,7 96,9 0 1,1 12 316 0
40 C. Llollinco 02-05-2026 09:45 4,8 98,1 0 0,1 358 278 0
39 C. Llollinco 02-05-2026 09:30 3,4 98,7 0 0 0 251 0
38 C. Llollinco 02-05-2026 09:15 1,8 98,3 0 0 0 213 0
37 C. Llollinco 02-05-2026 09:00 0,5 98,3 0 0 0 180 0
36 C. Llollinco 02-05-2026 08:45 -0,2 98,1 0,1 0 0 129 0
35 C. Llollinco 02-05-2026 08:30 -0,7 98 0 0 0 79 0
34 C. Llollinco 02-05-2026 08:15 -1,2 98,1 0 0 0 52 0
33 C. Llollinco 02-05-2026 08:00 -1,4 97,7 0 0 0 19 0
32 C. Llollinco 02-05-2026 07:45 -1,4 97,7 0 0 0 7 0
31 C. Llollinco 02-05-2026 07:30 -1,5 97,9 0 0 0 2 0
30 C. Llollinco 02-05-2026 07:15 -1,3 97,4 0 0 0 0 0
29 C. Llollinco 02-05-2026 07:00 -1,4 97,7 0 0 0 0 0
28 C. Llollinco 02-05-2026 06:45 -1,3 97,5 0 0 0 0 0
27 C. Llollinco 02-05-2026 06:30 -1,3 97,7 0 0 0 0 0
26 C. Llollinco 02-05-2026 06:15 -1,2 97,8 0 0 0 0 0
25 C. Llollinco 02-05-2026 06:00 -1,1 97,6 0 0 0 0 0
24 C. Llollinco 02-05-2026 05:45 -1 97,7 0 0 0 0 0
23 C. Llollinco 02-05-2026 05:30 -0,8 97,4 0 0 0 0 0
22 C. Llollinco 02-05-2026 05:15 -0,7 97,5 0 0 18 0 0
21 C. Llollinco 02-05-2026 05:00 -0,7 97,5 0 0 0 0 0
20 C. Llollinco 02-05-2026 04:45 -0,6 97,6 0 0 0 0 0
19 C. Llollinco 02-05-2026 04:30 -0,6 97,6 0 0 0 0 0
18 C. Llollinco 02-05-2026 04:15 -0,4 97,4 0 0 0 0 0
17 C. Llollinco 02-05-2026 04:00 -0,3 97,3 0 0 0 0 0
16 C. Llollinco 02-05-2026 03:45 0 97,3 0 0 0 0 0
15 C. Llollinco 02-05-2026 03:30 0 97,3 0 0 0 0 0
14 C. Llollinco 02-05-2026 03:15 0,2 97,4 0 0 0 0 0
13 C. Llollinco 02-05-2026 03:00 0,5 97,2 0 0 0 0 0
12 C. Llollinco 02-05-2026 02:45 0,6 97,2 0 0 0 0 0
11 C. Llollinco 02-05-2026 02:30 0,7 97,3 0 0 0 0 0
10 C. Llollinco 02-05-2026 02:15 0,8 97 0 0 0 0 0
9 C. Llollinco 02-05-2026 02:00 1 97 0 0 0 0 0
8 C. Llollinco 02-05-2026 01:45 1 96,9 0 0 0 0 0
7 C. Llollinco 02-05-2026 01:30 1 96,8 0 0 0 0 0
6 C. Llollinco 02-05-2026 01:15 1,2 96,6 0 0 0 0 0
5 C. Llollinco 02-05-2026 01:00 1,4 96,5 0 0 0 0 0
4 C. Llollinco 02-05-2026 00:45 1,3 96,6 0 0 0 0 0
3 C. Llollinco 02-05-2026 00:30 1,6 96,2 0 0 0 0 0
2 C. Llollinco 02-05-2026 00:15 1,8 96,3 0 0 0 0 0
1 C. Llollinco 02-05-2026 00:00 2 95,9 0 0 0 0 0